Location: The Saddle
(36.8333°N, 80.3417°W)
Time: 07:16:53
(UTC-05:00)

A-11 Canister half - Pass Details

Date: 11 December 2023
Orbit: 1526 x 1682 km, 47.3° (Epoch: 27 February)

Event Time Altitude Azimuth Distance (km) Brightness Sun altitude
Rises 16:45:24 0° 224° (SW) 4,871 13.6 2.6°
Reaches altitude 10° 16:48:31 10° 222° (SW) 3,901 12.9 2.1°
Maximum altitude 16:58:30 72° 140° (SE) 1,752 9.4 0.3°
Drops below altitude 10° 17:08:35 10° 59° (ENE) 3,941 10.5 -1.4°
Enters shadow 17:11:05 - 58° (ENE) 4,719 10.8 -1.9°
Sets 17:11:45 0° 58° (ENE) 4,924 - -2.0°
